Regional Weather Roundup
Issued by NWS

Home | Current Version | Previous Version | Text Only | Print | Product List | Glossary Off
Versions: 1 2 3 4 5 6 7 8 9 10 11 12 13 14 15 16 17 18 19 20 21 22 23 24 25 26 27 28 29 30 31 32 33 34 35 36 37 38 39 40 41 42 43 44 45 46 47 48 49 50

000
ASUS45 KSLC 290110
RWRUT

UTAH REGIONAL WEATHER ROUNDUP
NATIONAL WEATHER SERVICE SALT LAKE CITY UT
700 PM MDT TUE JUL 28 2015

UTZ001>011-023>025-290200-

NORTHERN UTAH

CITY           SKY/WX    TMP DP  RH WIND       PRES   REMARKS
BRIGHAM CITY   SUNNY     76  19  12 SE5       30.21S
HILL AFB       SUNNY     74  19  12 N6        30.23S
LOGAN          SUNNY     74  31  20 NW7       30.22F
OGDEN          SUNNY     76  21  12 N8        30.21F
PROVO AIRPORT  NOT AVBL
SALT LAKE CITY SUNNY     77  27  15 N10       30.19F
VERNAL         SUNNY     82  22  11 E5        30.14F
WENDOVER       SUNNY     77  21  12 E8        30.20S
HEBER CITY     SUNNY     77  27  15 NW8       30.22S
WEST JORDAN    SUNNY     73  30  20 NW14      30.22S

$$

UTZ012>022-026-027-290200-

SOUTHERN/CENTRAL UTAH

CITY           SKY/WX    TMP DP  RH WIND       PRES   REMARKS
BLANDING       MOSUNNY   85  25  11 W5        30.19S
BRYCE CANYON   SUNNY     78  30  17 W9        30.27F
CEDAR CITY     SUNNY     84  25  11 N10       30.15S
DELTA          SUNNY     82  24  12 N13       30.16S
HANKSVILLE     MOSUNNY   91  30  11 CALM      30.04S
MILFORD        SUNNY     84  27  12 NE16      30.13F
MOAB/CYNLANDS  SUNNY     90  25   9 NW3       30.04F
PRICE          SUNNY     83  22  10 W16G22    30.18S
ST GEORGE      CLEAR     99  34  10 CALM      29.92F HX  93
KANAB          SUNNY     90  27  10 NW10      30.12

$$

REGIONAL REPORTS     COLORADO/ARIZONA

CITY           SKY/WX    TMP DP  RH WIND       PRES   REMARKS
CRAIG, CO      SUNNY     79  29  16 NW13      30.22S
GRAND JUNCTION SUNNY     87  22   9 NW15      30.06F
RIFLE          SUNNY     86  21   9 W13       30.11F
MONTROSE       MOSUNNY   85  35  16 NW13      30.13F
CORTEZ         SUNNY     82  26  13 W8        30.13S
PAGE, AZ       SUNNY     94  24   8 CALM      29.99F
GRAND CANYON   SUNNY     84  19   9 VRB6      30.21F
KINGMAN        SUNNY     96  24   7 SW12      29.96F HX  90
FLAGSTAFF      SUNNY     80  34  19 W9        30.24S

$$

REGIONAL REPORTS    NEVADA/IDAHO/WYOMING

CITY           SKY/WX    TMP DP  RH WIND       PRES   REMARKS
LAS VEGAS, NV  SUNNY    102  26   7 E6        29.81F HX  95
ELY            MOSUNNY   79  24  13 N15       30.20F
ELKO           SUNNY     80  11   7 E9        30.19F
POCATELLO, ID  MOSUNNY   72  23  16 VRB3      30.27F
BURLEY         SUNNY     72  27  18 VRB3      30.23F
EVANSTON, WY   SUNNY     69   7   9 W9        30.33S
ROCK SPRINGS   SUNNY     69  15  12 W10G20    30.30S
KEMMERER       SUNNY     64  21  19 NW9G17    30.35F

$$


USA.gov is the U.S. government's official web portal to all federal, state and local government web resources and services.